Showing default

CALSPHERE 2, 902

Orbit data source: Space-Track

CALSPHERE 2, 902 is a payload satellite owned by NRL (US) in LEO that was launched on Tue, 06 Oct 1964 UTC via a THOR ABLESTAR launch vehicle from the Air Force Western Test Range (AFWTR). Payload-class satellites include a variety of spacecraft equipped with specific instruments for various scientific and technological missions. These include communications satellites like Starlink; space stations such as the ISS; scientific satellites like the Hubble; Earth observation satellites from companies like Planet Labs, Umbra, and HawkEye 360; GPS; miniature CubeSats for education and research; and military/defense satellites.

Loading next visibility...
Identifier
902, 1964-063E
Orbit
LEO
Country
Flag of USUS
Related business
Manufacturer
NRL
Mission
Operational spacecraft
Bus & Motor
NRL 14", Unknown motor
Mass
10 kg wet, 10 kg dry
Launch date (UTC)
1964-10-06 (62 years ago)
Launch vehicle
THOR ABLESTAR
Launch site
Air Force Western Test Range (AFWTR)
Object type
Payload
Rocket body
Debris
Shape & HBR
Unknown
Radar Cross Section
Small (<0.1 m²)

Expand to show TLE details & history
Last TLE update: 7 hours ago

TLE from 7 hours ago
0 CALSPHERE 2
1 00902U 64063E   26127.87095884  .00000049  00000-0  60903-4 0  9992
2 00902  90.2358  74.8253 0018259 350.9513  69.1688 13.52897255850817
Epoch: 2026-05-07T20:54Z
TLE epoch observation values (Epoch: 2026-05-07T20:54:10.843Z)
Latitude
60.40446°
Longitude
-104.84379°
Altitude
1,067.181 km
Speed
7.326 km/s
True Right ascension
04h 57m 38s
True Declination
60° 15' 46"
Sunlit
Object was in daylight at epoch
Visualization orbit readout
Latitude
Unknown
Longitude
Unknown
Altitude
Unknown
Speed
Unknown
Apparent Right ascension
Unknown
Apparent Declination
Unknown
Sunlit
N/A
Visualization observer readout
Local Sidereal Time
12:24:32
Azimuth
Unknown
Elevation
Unknown
Doppler factor
Unknown
Orbital elements
Apogee altitude
1,072.243 km
Perigee altitude
1,045.085 km
Semi-major axis
7,436.801 km
Eccentricity
0.00183
Inclination
90.2358°
RAAN
74.8253°
Arg. of periapsis
350.9513°
True anomaly
69.36451°
Mean anomaly
69.1688°
Eccentric anomaly
69.26664°
Mean motion
3.38426 °/min
Orbital period
106.37 mins
BSTAR
0.000060903
Loading maneuver chart data...
Computing Atmospheric mass density...
Loading historical data...
Loading historical data...
Loading historical data...
Loading historical data...
Loading historical data...
Loading historical data...
Loading historical data...

Documentation

Showing up to 5 results
|